Date,TemperatureHighF,TemperatureAvgF,TemperatureLowF,DewpointHighF,DewpointAvgF,DewpointLowF,HumidityHigh,HumidityAvg,HumidityLow,PressureMaxIn,PressureMinIn,WindSpeedMaxMPH,WindSpeedAvgMPH,GustSpeedMaxMPH,PrecipitationSumIn
2014-1-1,6,-4,-14,-7,-14,-22,72,64,50,0.00,40.00,7,4,13,0.00
2014-1-2,9,-2,-7,-5,-10,-14,75,66,50,0.00,40.00,9,5,19,0.00
2014-1-3,13,1,-15,8,-8,-23,81,68,52,0.00,40.00,12,7,28,0.00
2014-1-4,22,16,11,18,9,-100,85,76,66,0.00,40.00,11,6,22,0.00
2014-1-5,11,3,-7,3,-7,-15,73,64,50,0.00,40.00,10,6,102,0.00
2014-1-6,-5,-10,-17,-15,-23,-30,66,54,41,0.00,40.00,12,8,23,0.00
2014-1-7,-1,-11,-19,-16,-22,-30,64,55,47,0.00,40.00,8,7,19,0.00
2014-1-8,11,-4,-19,-4,-13,-27,75,64,49,0.00,40.00,8,3,107,0.00
2014-1-9,14,0,-11,4,-9,-18,77,66,37,0.00,40.00,8,4,169,0.00
2014-1-10,28,22,14,27,18,4,95,85,64,0.00,40.00,6,5,17,0.00
2014-1-11,30,28,27,28,25,-100,96,89,82,0.00,40.00,7,4,16,0.00
2014-1-12,31,27,23,26,23,20,90,86,77,0.00,40.00,8,5,20,0.00
2014-1-13,32,28,24,28,23,15,94,82,67,0.00,40.00,9,4,18,0.00
2014-1-14,24,20,15,17,14,10,85,79,69,0.00,40.00,10,5,24,0.00
2014-1-15,16,12,8,11,4,2,82,72,56,0.00,40.00,10,7,22,0.00
2014-1-16,24,17,9,20,12,3,90,84,73,0.00,40.00,8,4,19,0.00
2014-1-17,24,21,20,22,18,17,91,89,87,0.00,40.00,10,5,22,0.00
2014-1-18,24,16,11,11,5,-100,75,65,54,0.00,40.00,6,4,12,0.00
2014-1-19,14,13,11,7,6,5,75,74,73,0.00,40.00,7,6,14,0.00
2014-1-20,7,3,-3,-6,-9,-13,68,56,49,0.00,40.00,9,7,20,0.00
2014-1-21,8,2,-7,-6,-17,-100,71,54,49,0.00,40.00,5,3,190,0.00
2014-1-25,3,2,2,-13,-14,-16,47,45,42,0.00,40.00,12,10,25,0.00
2014-1-27,-4,-5,-8,-19,-20,-21,55,47,42,0.00,40.00,12,10,27,0.00
2014-1-28,2,-3,-12,-16,-19,-24,54,45,37,0.00,40.00,10,9,23,0.00
2014-1-29,20,14,2,-1,-6,-12,52,40,30,0.00,40.00,8,6,25,0.00
2014-1-30,14,14,14,2,1,-1,58,56,51,0.00,40.00,8,7,19,0.00
2014-1-31,12,4,-7,-4,-8,-14,75,59,47,0.00,40.00,6,4,11,0.00
2014-2-1,14,11,-5,5,1,-11,75,64,60,0.00,40.00,4,4,9,0.00
2014-2-2,17,10,-2,-1,-4,-8,75,55,40,0.00,40.00,5,3,51,0.00
2014-2-3,26,16,-2,6,3,-11,76,58,42,0.00,40.00,6,4,13,0.00
2014-2-4,21,13,8,6,-4,-100,81,60,45,0.00,40.00,5,3,10,0.00
2014-2-5,11,6,0,6,-2,-7,78,68,57,0.00,40.00,8,5,19,0.00
2014-2-6,14,5,-4,-6,-9,-13,76,52,34,0.00,40.00,8,5,17,0.00
2014-2-7,19,5,-8,-7,-11,-15,71,49,31,0.00,40.00,10,7,20,0.00
2014-2-8,22,4,-4,0,-9,-14,79,56,24,0.00,40.00,7,4,14,0.00
2014-2-9,16,6,-2,6,-2,-9,79,71,48,0.00,40.00,8,4,17,0.00
2014-2-10,8,0,-10,-8,-11,-16,74,60,43,0.00,40.00,6,4,13,0.00
2014-2-11,17,12,-1,-5,-7,-11,62,42,33,0.00,40.00,8,6,16,0.00
2014-2-12,24,14,4,9,5,-1,82,66,51,0.00,40.00,6,3,12,0.00
2014-2-13,22,11,0,19,7,-5,89,83,77,0.00,40.00,12,4,23,0.00
2014-2-14,15,7,-1,3,-2,-9,74,65,58,0.00,40.00,10,7,21,0.00
2014-2-15,20,10,0,6,0,-100,82,67,47,0.00,40.00,7,4,14,0.00
2014-2-16,17,7,-7,5,-1,-13,82,72,51,0.00,40.00,6,4,21,0.00
2014-2-17,19,11,-6,15,7,-11,88,82,73,0.00,40.00,10,7,23,0.00
2014-2-18,32,19,5,23,14,1,94,83,70,0.00,40.00,8,3,17,0.00
2014-2-19,45,31,18,22,18,13,91,64,30,0.00,40.00,9,5,18,0.00
2014-2-20,41,31,22,31,23,15,97,72,51,0.00,40.00,12,6,26,0.00
2014-2-21,33,25,13,32,22,5,98,87,70,0.00,40.00,15,10,30,0.00
2014-2-22,20,12,6,6,2,-100,72,64,53,0.00,40.00,11,8,22,0.00
2014-2-23,16,9,4,1,-2,-4,72,61,44,0.00,40.00,11,7,21,0.00
2014-2-24,13,7,1,0,-4,-6,75,62,44,0.00,40.00,10,5,21,0.00
2014-2-25,6,2,-4,-3,-9,-14,76,60,42,0.00,40.00,11,6,22,0.00
2014-2-26,12,0,-11,0,-13,-19,78,57,24,0.00,40.00,12,7,24,0.00
2014-2-27,2,-6,-18,-8,-23,-100,73,53,28,0.00,40.00,11,7,28,0.00
2014-2-28,11,0,-21,3,-10,-30,79,63,30,0.00,40.00,9,5,23,0.00
2014-3-1,11,3,-6,1,-10,-100,77,57,36,0.00,40.00,8,6,19,0.00
2014-3-2,10,-4,-19,-15,-20,-28,67,47,24,0.00,40.00,9,5,18,0.00
2014-3-3,21,5,-11,-4,-11,-18,70,49,25,0.00,40.00,6,4,13,0.00
2014-3-4,22,12,2,6,3,-4,82,69,43,0.00,40.00,5,3,12,0.00
2014-3-5,19,6,-4,-1,-6,-10,80,60,31,0.00,40.00,6,4,14,0.00
2014-3-6,30,16,-4,10,4,-10,82,62,40,0.00,40.00,11,7,24,0.00
2014-3-7,27,21,16,25,16,8,92,81,70,0.00,40.00,9,5,21,0.00
2014-3-8,27,16,3,17,6,-100,84,66,43,0.00,40.00,9,5,144,0.00
2014-3-9,41,24,0,23,12,-5,82,60,46,0.00,40.00,9,5,144,0.00
2014-3-10,57,41,28,32,25,21,79,56,29,0.00,40.00,14,6,29,0.00
2014-3-11,40,34,23,26,23,16,78,64,53,0.00,40.00,9,5,21,0.00
2014-3-12,23,8,-5,16,-3,-11,80,61,37,0.00,40.00,9,6,25,0.00
2014-3-13,34,14,-7,18,1,-16,77,58,41,0.00,40.00,7,5,16,0.00
2014-3-14,44,30,23,32,25,18,94,83,60,0.00,40.00,8,4,16,0.00
2014-3-15,24,13,2,20,5,-4,85,70,50,0.00,40.00,8,6,22,0.00
2014-3-16,25,5,-11,-3,-9,-100,76,59,24,0.00,40.00,5,3,11,0.00
2014-3-17,25,14,5,15,3,-11,86,62,41,0.00,40.00,11,6,20,0.00
2014-3-18,33,26,19,24,20,16,89,78,68,0.00,40.00,6,4,12,0.00
2014-3-19,31,28,26,28,24,21,92,85,74,0.00,40.00,8,5,16,0.00
2014-3-20,34,28,21,24,16,-100,87,65,45,0.00,40.00,9,6,21,0.00
2014-3-21,40,26,11,30,19,-100,94,80,46,0.00,40.00,9,4,16,0.00
2014-3-22,30,19,8,27,9,-2,95,68,44,0.00,40.00,11,7,21,0.00
2014-3-23,21,10,1,7,-1,-100,79,64,37,0.00,40.00,7,5,15,0.00
2014-3-24,28,20,8,2,-2,-8,70,40,22,0.00,40.00,9,6,21,0.00
2014-3-25,16,10,-2,5,-1,-10,82,64,41,0.00,40.00,10,5,22,0.00
2014-3-26,33,18,-2,13,1,-10,71,49,26,0.00,40.00,9,6,18,0.00
2014-3-27,35,30,23,33,28,13,97,92,66,0.00,40.00,8,5,16,0.00
2014-3-28,38,29,22,31,22,16,97,77,43,0.00,40.00,10,6,22,0.00
2014-3-29,45,28,17,18,16,11,90,67,33,0.00,40.00,4,2,10,0.00
2014-3-30,52,35,23,26,17,-100,71,51,34,0.00,40.00,12,6,24,0.00
2014-3-31,50,40,29,31,27,24,85,63,45,0.00,40.00,12,6,24,0.00
2014-4-1,43,33,20,37,24,9,84,70,60,0.00,40.00,12,9,24,0.00
2014-4-2,44,28,16,20,13,8,75,58,26,0.00,40.00,10,6,25,0.00
2014-4-3,38,26,16,23,18,13,88,73,52,0.00,40.00,7,3,13,0.00
2014-4-4,29,27,23,27,24,20,95,88,77,0.00,40.00,13,7,30,0.00
2014-4-5,48,32,16,26,18,11,86,59,30,0.00,40.00,12,6,30,0.00
2014-4-6,57,44,33,31,25,-100,73,52,29,0.00,40.00,8,5,20,0.00
2014-4-7,61,43,32,33,30,28,89,63,34,0.00,40.00,6,4,13,0.00
2014-4-8,49,40,28,35,28,18,90,66,34,0.00,40.00,9,5,21,0.00
2014-4-9,54,42,26,27,20,17,78,46,24,0.00,40.00,9,6,24,0.00
2014-4-10,56,49,42,32,23,17,54,38,23,0.00,40.00,13,8,28,0.00
2014-4-11,53,41,29,40,25,16,96,56,29,0.00,40.00,9,4,18,0.00
2014-4-12,37,35,32,35,32,29,97,91,79,0.00,40.00,6,3,12,0.00
2014-4-13,50,39,33,40,34,-100,98,87,64,0.00,40.00,6,4,14,0.00
2014-4-14,37,26,21,32,24,17,96,90,79,0.00,40.00,13,10,29,0.00
2014-4-15,29,18,8,21,11,4,84,73,56,0.00,40.00,7,4,17,0.00
2014-4-16,33,21,5,27,16,1,94,80,47,0.00,40.00,8,4,18,0.00
2014-4-17,39,32,27,34,29,26,95,90,81,0.00,40.00,8,5,17,0.00
2014-4-18,41,32,26,31,26,23,93,76,56,0.00,40.00,9,4,17,0.00
2014-4-19,49,36,21,34,24,18,94,67,31,0.00,40.00,13,6,26,0.00
2014-4-20,67,48,37,48,40,-100,96,78,46,0.00,40.00,7,5,14,0.00
2014-4-21,70,49,34,47,38,30,99,69,33,0.00,40.00,11,4,25,0.00
2014-4-22,41,36,29,30,25,23,78,65,54,0.00,40.00,14,9,26,0.00
2014-4-23,53,40,26,25,20,13,85,49,22,0.00,40.00,5,3,12,0.02
2014-4-24,46,36,32,33,24,18,98,62,34,0.00,40.00,8,4,19,0.10
2014-4-25,43,37,32,40,34,30,98,90,78,0.00,40.00,7,6,19,0.49
2014-4-26,42,36,32,31,29,26,93,76,52,0.00,40.00,8,6,17,0.01
2014-4-28,47,43,40,25,24,22,54,47,37,0.00,40.00,4,3,17,0.00
2014-4-29,40,37,35,36,32,25,98,86,54,0.00,40.00,6,4,15,0.56
2014-4-30,50,45,35,47,44,34,99,96,86,0.00,40.00,5,4,11,0.13
2014-5-1,44,42,39,44,42,38,99,97,95,0.00,40.00,6,4,12,0.30
2014-5-2,49,44,36,40,37,35,95,76,58,0.00,40.00,7,4,12,0.05
2014-5-3,49,44,35,38,32,25,97,65,43,0.00,40.00,12,7,24,0.12
2014-5-4,48,41,31,32,28,-100,89,65,51,0.00,40.00,11,6,23,0.01
2014-5-5,51,43,29,36,30,27,92,61,39,0.00,40.00,5,3,12,0.01
2014-5-6,56,46,28,30,28,25,93,52,34,0.00,40.00,6,4,15,0.00
2014-5-7,43,42,41,27,26,25,57,52,49,0.00,40.00,4,3,8,0.00
2014-5-13,58,53,48,40,36,34,58,53,49,0.00,40.00,8,5,16,0.05
2014-5-14,60,49,38,35,31,26,70,50,33,0.00,40.00,7,5,16,0.00
2014-5-15,39,36,32,32,29,26,98,79,61,0.00,40.00,10,6,25,0.08
2014-5-16,41,37,29,35,32,27,99,83,68,0.00,40.00,7,4,14,0.12
2014-5-17,59,47,28,34,26,19,93,50,22,0.00,40.00,8,4,17,0.03
2014-5-18,69,57,36,42,34,-100,82,47,27,0.00,40.00,6,4,17,0.00
2014-5-19,71,58,44,46,33,-100,92,48,27,0.00,40.00,10,7,28,0.03
2014-5-20,62,54,47,53,48,-100,97,85,72,0.00,40.00,7,4,17,0.64
2014-5-21,68,59,47,56,48,42,99,69,44,0.00,40.00,13,7,23,0.02
2014-5-22,58,52,47,48,40,-100,87,68,52,0.00,40.00,9,5,17,0.02
2014-5-23,70,61,47,43,40,37,81,50,31,0.00,40.00,7,4,17,0.00
2014-5-24,82,68,46,50,44,38,76,45,25,0.00,40.00,7,3,16,0.00
2014-5-25,87,70,60,48,33,-100,63,34,17,0.00,40.00,7,6,17,0.00
2014-5-26,84,66,61,69,50,-100,98,65,46,0.00,40.00,8,4,18,0.17
2014-5-27,68,56,46,60,37,-100,95,58,36,0.00,40.00,6,4,14,0.03
2014-5-28,66,56,42,47,43,38,91,64,48,0.00,40.00,6,3,14,0.00
2014-5-29,82,62,39,51,47,38,98,64,33,0.00,40.00,5,2,12,0.00
2014-5-30,86,69,51,55,50,47,93,57,28,0.00,40.00,7,3,14,0.00
2014-5-31,86,70,56,57,53,48,89,57,28,0.00,40.00,10,5,20,0.00
2014-6-1,80,64,56,68,55,-100,96,77,61,0.00,40.00,8,5,18,0.26
2014-6-2,73,69,64,67,65,62,99,87,78,0.00,40.00,7,5,19,1.06
2014-6-3,70,61,48,62,50,46,93,69,44,0.00,40.00,11,7,26,0.18
2014-6-4,72,62,46,47,43,35,96,55,26,0.00,40.00,6,4,14,0.00
2014-6-5,81,64,42,48,42,37,87,50,21,0.00,40.00,6,3,13,0.00
2014-6-6,74,64,53,66,57,47,98,79,59,0.00,40.00,5,4,13,0.36
2014-6-7,74,58,49,64,55,48,99,91,67,0.00,40.00,8,3,21,0.61
2014-6-8,68,59,44,51,41,-100,99,57,33,0.00,40.00,9,4,19,0.19
2014-6-9,71,58,40,44,40,37,89,55,31,0.00,40.00,4,2,13,0.00
2014-6-10,74,63,44,51,47,40,90,59,42,0.00,40.00,5,2,12,0.00
2014-6-11,79,66,48,52,48,43,94,56,34,0.00,40.00,5,3,13,0.00
2014-6-12,69,56,51,58,43,-100,98,72,51,0.00,40.00,11,5,23,0.00
2014-6-13,65,53,41,44,42,39,94,68,42,0.00,40.00,10,6,24,0.00
2014-6-14,67,56,37,47,44,36,98,68,45,0.00,40.00,6,3,12,0.00
2014-6-15,71,60,53,59,49,-100,98,71,45,0.00,40.00,13,7,33,0.06
2014-6-16,86,72,56,59,54,48,100,60,29,0.00,40.00,9,5,21,0.05
2014-6-17,81,70,59,63,60,54,94,72,51,0.00,40.00,5,3,12,0.00
2014-6-18,68,62,52,57,53,48,87,74,64,0.00,40.00,5,3,15,0.00
2014-6-19,74,62,47,58,50,43,98,69,41,0.00,40.00,8,4,19,0.00
2014-6-20,60,53,49,53,46,36,99,80,43,0.00,40.00,6,4,14,0.45
2014-6-21,62,54,52,60,47,-100,99,90,89,0.00,40.00,5,3,12,0.02
2014-6-22,79,68,58,64,59,-100,99,77,53,0.00,40.00,6,3,12,0.01
2014-6-23,77,66,59,65,61,58,97,86,62,0.00,40.00,5,3,12,0.00
2014-6-24,69,59,46,63,58,46,99,94,80,0.00,40.00,4,2,11,1.38
2014-6-25,66,55,45,48,45,43,99,72,48,0.00,40.00,5,3,15,0.52
2014-6-26,76,60,44,58,48,35,95,65,46,0.00,40.00,5,2,10,0.00
2014-6-27,77,64,50,63,57,49,98,79,57,0.00,40.00,7,4,16,0.00
2014-6-28,85,73,63,69,64,59,93,74,54,0.00,40.00,10,6,23,0.00
2014-6-29,82,73,66,67,61,-100,99,73,47,0.00,40.00,8,6,20,0.30
2014-6-30,85,74,66,66,61,57,93,66,39,0.00,40.00,10,6,27,0.01
2014-7-1,79,68,62,65,60,58,98,78,53,0.00,40.00,8,5,22,0.21
2014-7-2,70,60,50,61,45,31,96,62,24,0.00,40.00,8,5,18,0.13
2014-7-3,72,62,48,48,42,37,87,51,30,0.00,40.00,7,3,20,0.00
2014-7-4,80,64,48,48,36,-100,87,42,29,0.00,40.00,6,4,12,0.00
2014-7-5,81,70,57,59,55,48,91,61,46,0.00,40.00,7,5,20,0.15
2014-7-6,75,67,64,69,61,-100,97,86,65,0.00,40.00,7,4,22,1.15
2014-7-7,81,66,55,64,46,-100,98,62,32,0.00,40.00,12,6,25,0.79
2014-7-8,57,53,48,52,49,46,97,88,78,0.00,40.00,7,4,12,0.60
2014-7-9,66,57,48,53,50,46,96,77,51,0.00,40.00,6,3,14,0.16
2014-7-10,75,63,46,57,50,45,97,66,38,0.00,40.00,6,4,17,0.00
2014-7-11,77,66,55,62,58,51,89,74,54,0.00,40.00,8,4,20,0.01
2014-7-12,83,66,63,68,58,56,96,69,51,0.00,40.00,5,3,12,0.29
2014-7-13,72,61,53,62,48,44,98,61,37,0.00,40.00,11,5,21,0.30
2014-7-14,68,57,50,54,48,48,95,76,52,0.00,40.00,4,3,12,0.14
2014-7-15,53,52,50,52,49,47,98,89,82,0.00,40.00,9,6,21,0.05
2014-7-16,72,60,48,51,47,46,94,68,42,0.00,40.00,7,4,17,0.01
2014-7-17,79,64,44,55,50,43,97,64,37,0.00,40.00,6,2,12,0.00
2014-7-18,79,66,54,57,53,51,91,65,42,0.00,40.00,8,4,19,0.00
2014-7-19,79,70,57,61,58,51,93,66,49,0.00,40.00,7,5,17,0.00
2014-7-20,81,69,62,63,59,56,84,73,51,0.00,40.00,7,4,15,0.00
2014-7-21,86,75,65,71,66,59,90,76,61,0.00,40.00,6,4,15,0.00
2014-7-22,84,67,60,72,59,54,94,72,54,0.00,40.00,12,6,27,0.00
2014-7-23,71,58,49,54,46,46,95,60,45,0.00,40.00,5,4,18,0.00
2014-7-24,79,66,47,54,49,45,95,60,36,0.00,40.00,5,2,13,0.00
2014-7-25,77,62,55,62,54,51,88,69,50,0.00,40.00,7,4,19,0.00
2014-7-26,81,69,60,68,61,52,95,78,38,0.00,40.00,10,4,26,0.29
2014-7-27,64,55,51,58,51,44,98,82,64,0.00,40.00,6,4,20,1.18
2014-7-28,71,61,47,54,49,44,89,65,44,0.00,40.00,8,4,19,1.18
2014-7-29,69,57,51,60,52,50,98,78,69,0.00,40.00,6,4,14,0.03
2014-7-30,72,59,50,54,51,46,99,79,40,0.00,40.00,5,3,15,0.03
2014-7-31,75,59,52,57,51,51,98,75,43,0.00,40.00,8,4,18,0.01
2014-8-1,75,66,50,57,55,49,97,69,51,0.00,40.00,4,3,11,0.03
2014-8-2,81,71,52,57,54,51,97,61,38,0.00,40.00,5,2,9,0.03
2014-8-3,78,67,56,66,60,55,97,80,64,0.00,40.00,5,3,13,0.04
2014-8-4,74,64,52,60,56,51,98,75,56,0.00,40.00,5,3,10,0.03
2014-8-5,79,68,53,56,52,48,98,60,36,0.00,40.00,4,2,11,0.00
2014-8-6,80,71,51,59,54,49,96,59,42,0.00,40.00,4,2,11,0.00
2014-8-7,81,73,58,60,58,56,95,59,44,0.00,40.00,5,3,10,0.00
2014-8-8,83,73,55,61,55,50,96,59,32,0.00,40.00,5,3,12,0.00
2014-8-9,83,74,56,59,56,53,94,57,37,0.00,40.00,5,3,12,0.00
2014-8-10,82,69,57,61,57,56,95,67,45,0.00,40.00,5,3,9,0.00
2014-8-11,75,64,54,62,59,53,98,83,63,0.00,40.00,8,4,22,0.14
2014-8-12,67,59,52,53,50,45,98,75,46,0.00,40.00,9,7,23,0.17
2014-8-13,66,60,50,54,50,45,87,72,60,0.00,40.00,7,5,19,0.00
2014-8-14,70,59,47,48,44,39,92,60,36,0.00,40.00,8,4,16,0.00
2014-8-15,81,68,45,56,50,42,88,55,35,0.00,40.00,5,4,13,0.00
2014-8-16,66,57,54,62,52,50,92,77,73,0.00,40.00,6,4,14,0.12
2014-8-17,64,58,50,54,52,49,96,80,68,0.00,40.00,4,3,12,0.00
2014-8-18,63,53,46,61,52,45,99,88,88,0.00,40.00,6,3,12,0.09
2014-8-19,76,66,60,66,63,60,99,93,69,0.00,40.00,6,3,13,0.42
2014-8-20,67,63,58,62,60,58,99,91,83,0.00,40.00,5,2,9,0.19
2014-8-21,74,68,59,64,62,59,99,83,70,0.00,40.00,5,3,9,0.01
2014-8-22,74,70,64,70,66,62,98,89,73,0.00,40.00,5,2,11,0.06
2014-8-23,71,68,67,67,65,64,98,89,81,0.00,40.00,8,4,14,0.53
2014-8-24,76,68,66,66,63,64,92,81,69,0.00,40.00,9,6,17,0.00
2014-8-25,84,76,64,70,68,62,96,78,60,0.00,40.00,7,5,17,0.18
2014-8-26,72,64,53,70,53,48,93,68,50,0.00,40.00,8,4,16,0.00
2014-8-27,69,58,47,54,49,46,95,74,49,0.00,40.00,4,2,10,0.04
2014-8-28,71,60,45,55,51,44,95,73,47,0.00,40.00,6,3,13,0.04
2014-8-29,67,63,55,67,62,52,99,96,91,0.00,40.00,5,4,15,0.17
2014-8-30,66,62,58,65,62,57,99,98,94,0.00,40.00,6,3,15,0.75
2014-8-31,68,60,57,60,57,56,99,90,71,0.00,40.00,6,3,13,0.02
2014-9-1,70,66,59,67,63,56,99,90,73,0.00,40.00,7,5,17,0.24
2014-9-2,75,62,51,59,54,49,96,77,42,0.00,40.00,6,3,14,0.02
2014-9-3,79,64,53,62,55,50,92,73,45,0.00,40.00,8,5,18,0.00
2014-9-4,70,66,62,66,64,61,99,93,84,0.00,40.00,10,4,23,0.40
2014-9-5,67,64,55,66,58,51,98,81,62,0.00,40.00,10,6,21,0.04
2014-9-6,68,57,48,52,46,37,95,71,32,0.00,40.00,10,5,21,0.00
2014-9-7,79,62,49,54,47,42,85,62,35,0.00,40.00,7,4,17,0.00
2014-9-8,76,63,51,57,53,49,95,71,46,0.00,40.00,8,4,20,0.00
2014-9-9,77,66,55,64,59,54,98,79,58,0.00,40.00,5,3,13,0.00
2014-9-10,63,53,41,62,52,39,99,97,94,0.00,40.00,12,6,27,2.51
2014-9-11,45,42,38,40,38,34,95,85,65,0.00,40.00,12,6,27,0.11
2014-9-12,52,43,34,41,37,33,98,82,51,0.00,40.00,4,2,8,0.01
2014-9-13,54,45,36,41,38,35,97,79,50,0.00,40.00,5,3,10,0.08
2014-9-14,62,50,41,50,42,40,96,77,49,0.00,40.00,8,4,20,0.01
2014-9-15,60,49,40,50,43,38,96,81,53,0.00,40.00,6,4,15,0.01
2014-9-16,67,52,37,49,40,34,91,68,39,0.00,40.00,7,4,17,0.01
2014-9-17,64,48,39,49,43,34,98,85,54,0.00,40.00,6,3,18,0.00
2014-9-18,58,46,39,42,37,33,85,71,47,0.00,40.00,5,3,12,0.00
2014-9-19,69,55,44,55,49,42,98,82,53,0.00,40.00,10,6,22,0.00
2014-9-20,75,64,54,64,56,52,93,77,55,0.00,40.00,11,5,26,0.00
2014-9-21,53,46,39,52,43,36,97,89,75,0.00,40.00,9,6,21,0.16
2014-9-22,69,51,35,49,42,34,97,76,44,0.00,40.00,7,4,17,0.02
2014-9-23,79,63,50,57,51,48,92,71,40,0.00,40.00,5,3,10,0.00
2014-9-24,73,59,47,55,52,46,99,79,47,0.00,40.00,6,4,15,0.00
2014-9-25,75,61,53,56,52,47,92,76,46,0.00,40.00,5,3,13,0.00
2014-9-26,78,62,48,55,51,47,98,72,36,0.00,40.00,5,2,13,0.00
2014-9-27,81,62,47,59,54,46,99,77,46,0.00,40.00,5,3,12,0.00
2014-9-28,82,67,57,62,58,55,96,75,44,0.00,40.00,5,3,11,0.00
2014-9-29,60,46,40,59,45,39,99,95,89,0.00,40.00,8,5,21,0.27
2014-9-30,48,43,40,42,39,37,95,88,77,0.00,40.00,5,4,18,0.03
2014-10-1,57,50,44,51,47,42,99,91,72,0.00,40.00,9,5,20,0.02
2014-10-2,58,54,52,56,53,50,99,97,93,0.00,40.00,6,3,13,0.02
2014-10-3,60,52,41,60,49,37,99,90,75,0.00,40.00,9,6,20,1.22
2014-10-4,42,39,37,39,37,34,98,91,85,0.00,40.00,8,5,16,0.21
2014-10-5,40,37,32,37,32,28,96,83,64,0.00,40.00,7,4,16,0.09
2014-10-6,56,42,32,34,29,25,92,65,31,0.00,40.00,9,5,20,0.01
2014-10-7,55,44,38,39,34,29,88,68,41,0.00,40.00,8,4,19,0.00
2014-10-8,48,41,33,33,30,27,94,68,45,0.00,40.00,11,6,24,0.00
2014-10-9,52,42,37,36,32,27,84,67,48,0.00,40.00,8,6,19,0.00
2014-10-10,50,42,32,37,34,31,96,76,52,0.00,40.00,9,3,14,0.00
2014-10-11,55,41,29,37,31,27,97,72,37,0.00,40.00,6,3,12,0.00
2014-10-12,60,45,32,41,33,29,94,67,39,0.00,40.00,9,5,22,0.00
2014-10-13,52,48,44,50,45,35,98,92,63,0.00,40.00,5,3,11,0.32
2014-10-14,49,47,46,48,45,43,98,93,83,0.00,40.00,10,7,27,1.14
2014-10-15,48,44,44,44,43,42,98,95,84,0.00,40.00,11,6,31,0.52
2014-10-16,49,46,44,47,45,43,99,97,91,0.00,40.00,3,2,10,0.04
2014-10-17,47,44,39,47,43,37,99,96,91,0.00,40.00,10,6,26,0.35
2014-10-18,42,36,28,38,32,27,96,85,64,0.00,40.00,9,6,23,0.31
2014-10-19,47,37,27,43,34,26,98,90,68,0.00,40.00,7,4,16,0.10
2014-10-20,45,43,39,43,41,38,97,92,84,0.00,40.00,9,5,19,0.05
2014-10-21,46,38,26,38,34,25,98,85,59,0.00,40.00,6,4,14,0.09
2014-10-22,52,35,23,39,30,21,97,85,53,0.00,40.00,7,4,15,0.01
2014-10-23,49,42,35,45,39,34,98,91,68,0.00,40.00,6,4,15,0.08
2014-10-24,59,48,42,49,45,42,99,91,66,0.00,40.00,6,4,13,0.04
2014-10-25,58,52,48,48,36,27,96,60,31,0.00,40.00,16,9,35,0.00
2014-10-26,55,44,31,37,32,28,96,65,41,0.00,40.00,9,4,20,0.00
2014-10-27,50,43,31,45,40,30,99,93,82,0.00,40.00,7,4,21,0.31
2014-10-28,54,46,41,46,41,35,99,84,55,0.00,40.00,10,6,23,0.29
2014-10-29,44,39,31,35,32,29,96,78,62,0.00,40.00,10,6,20,0.01
2014-10-30,42,38,34,36,34,32,94,84,69,0.00,40.00,7,4,16,0.03
2014-10-31,34,30,27,32,26,21,97,83,62,0.00,40.00,10,8,34,0.14
2014-11-1,43,32,27,24,22,19,79,66,40,0.00,40.00,5,3,11,0.01
2014-11-2,49,38,27,30,22,17,79,56,28,0.00,40.00,9,5,18,0.01
2014-11-3,52,42,31,40,30,25,94,65,44,0.00,40.00,7,4,18,0.04
2014-11-4,45,41,35,44,37,28,98,84,64,0.00,40.00,9,5,22,0.25
2014-11-5,38,36,32,31,28,25,96,72,62,0.00,40.00,7,4,15,0.01
2014-11-6,35,33,30,32,29,26,98,87,72,0.00,40.00,9,4,18,0.10
2014-11-7,35,30,22,32,26,20,98,87,68,0.00,40.00,7,4,17,0.04
2014-11-8,35,30,23,32,26,19,98,86,64,0.00,40.00,13,6,25,0.22
2014-11-9,36,28,16,26,19,13,93,72,45,0.00,40.00,8,4,18,0.08
2014-11-10,31,25,15,31,22,12,98,88,70,0.00,40.00,9,4,23,0.01
2014-11-11,31,27,22,30,26,20,97,94,91,0.00,40.00,10,8,27,0.00
2014-11-12,28,21,14,24,18,11,92,86,78,0.00,40.00,7,5,16,0.10
2014-11-13,29,19,12,21,15,9,88,82,69,0.00,40.00,8,6,17,0.03
2014-11-14,30,21,13,18,15,9,86,77,56,0.00,40.00,8,5,15,0.06
2014-11-15,25,14,4,13,6,1,85,72,56,0.00,40.00,7,5,15,0.01
2014-11-16,25,18,12,15,12,7,86,77,66,0.00,40.00,8,5,20,0.01
2014-11-17,22,14,6,11,6,1,83,71,52,0.00,40.00,8,6,20,0.01
2014-11-18,21,13,5,8,4,-2,83,67,52,0.00,40.00,10,7,26,0.00
2014-11-19,19,10,1,11,5,-4,84,77,68,0.00,40.00,6,4,15,0.00
2014-11-20,19,10,3,10,3,-2,83,72,50,0.00,40.00,9,5,16,0.00
2014-11-21,23,12,2,9,2,-4,81,64,44,0.00,40.00,8,6,20,0.00
2014-11-22,40,31,23,31,24,9,90,76,55,0.00,40.00,9,5,20,0.10
2014-11-23,44,39,33,44,39,30,99,98,90,0.00,40.00,6,4,15,0.10
2014-11-24,39,33,24,39,31,21,100,93,77,0.00,40.00,12,6,24,0.43
2014-11-25,24,18,4,22,14,0,92,84,68,0.00,40.00,9,5,19,0.01
2014-11-26,25,14,1,20,9,-4,88,82,71,0.00,40.00,9,3,15,0.03
2014-11-27,22,10,-3,18,2,-8,85,69,50,0.00,40.00,10,6,20,0.01
2014-11-28,18,9,1,16,3,-4,92,76,51,0.00,40.00,6,4,12,0.00
2014-11-29,34,27,18,34,26,16,98,94,90,0.00,40.00,7,5,16,0.10
2014-11-30,33,23,11,31,17,3,97,77,62,0.00,40.00,10,6,20,0.02
2014-12-1,11,4,-6,3,-7,-12,76,61,42,0.00,40.00,9,5,25,0.01
2014-12-2,23,14,0,18,9,-10,90,79,60,0.00,40.00,9,5,23,0.00
2014-12-3,21,17,11,16,10,3,88,73,60,0.00,40.00,10,6,23,0.00
2014-12-4,26,16,1,15,3,-5,76,59,35,0.00,40.00,7,5,16,0.07
2014-12-5,32,25,18,26,20,15,93,82,70,0.00,40.00,6,3,14,0.02
2014-12-6,31,22,12,20,16,9,92,77,47,0.00,40.00,7,4,17,0.01
2014-12-7,31,24,9,25,18,5,90,80,63,0.00,40.00,8,6,22,0.01
2014-12-8,32,31,28,31,28,24,97,91,79,0.00,40.00,8,4,18,0.09
2014-12-9,33,25,22,31,22,19,97,89,83,0.00,40.00,11,7,23,0.01
2014-12-10,35,23,14,24,18,12,91,78,55,0.00,40.00,3,2,8,0.07
2014-12-11,38,20,11,20,15,8,90,79,47,0.00,40.00,4,2,8,0.06
2014-12-12,38,22,13,25,18,10,90,84,59,0.00,40.00,4,2,8,0.00
2014-12-13,47,30,24,35,28,23,98,92,64,0.00,40.00,6,3,11,0.00
2014-12-14,44,37,33,42,36,32,99,96,91,0.00,40.00,4,3,10,0.00
2014-12-15,42,39,38,42,39,37,100,99,98,0.00,40.00,5,3,12,0.03
2014-12-16,38,30,25,38,29,23,100,96,92,0.00,40.00,10,6,20,0.11
2014-12-17,26,24,22,24,22,20,94,91,87,0.00,40.00,11,7,23,0.03
2014-12-18,30,22,12,22,17,9,90,83,64,0.00,40.00,6,3,14,0.14
2014-12-19,30,22,13,24,18,10,91,84,72,0.00,40.00,3,2,6,0.01
2014-12-20,26,17,6,23,14,2,92,86,83,0.00,40.00,3,2,8,0.00
2014-12-21,33,28,24,32,26,22,98,93,87,0.00,40.00,7,5,17,0.01
2014-12-22,33,32,30,32,31,28,98,95,90,0.00,40.00,8,6,17,0.11
2014-12-23,33,32,30,32,31,28,99,97,93,0.00,40.00,7,4,13,0.04
2014-12-24,33,31,29,33,30,27,99,96,91,0.00,40.00,8,4,16,0.06
2014-12-25,34,32,29,30,29,27,96,89,84,0.00,40.00,6,5,17,0.08
2014-12-26,32,31,29,31,30,28,98,96,91,0.00,40.00,3,1,7,0.01
2014-12-27,32,29,21,31,27,16,98,93,79,0.00,40.00,5,3,17,0.02
2014-12-28,23,14,3,16,8,-1,83,77,62,0.00,40.00,7,4,15,0.01
2014-12-29,14,3,-5,1,-4,-11,83,73,55,0.00,40.00,6,3,14,0.01
2014-12-30,8,-1,-6,-3,-9,-13,79,71,56,0.00,40.00,7,5,16,0.00
2014-12-31,10,-1,-10,-2,-10,-18,73,66,55,0.00,40.00,10,7,25,0.00
2015-1-1,24,12,3,19,6,-4,82,75,65,0.00,40.00,9,5,17,0.00
2015-1-2,14,8,-3,7,1,-8,82,74,66,0.00,40.00,7,4,11,0.00